Location: Ferma
(41.9500°N, 44.5167°E)
Time: 05:27:59
(UTC+00:00)

Cosmos 1269 Rocket - Pass Details

Date: 03 June 2022
Orbit: 773 x 778 km, 74.1° (Epoch: 03 July)

Event Time Altitude Azimuth Distance (km) Brightness Sun altitude
Rises 21:16:19 0° 338° (NNW) 3,257 8.3 -25.5°
Reaches altitude 10° 21:18:43 10° 336° (NNW) 2,327 7.3 -25.5°
Maximum altitude 21:23:58 73° 254° (WSW) 811 3.9 -25.4°
Enters shadow 21:24:08 72° 237° (WSW) 814 3.9 -25.4°
